C/2019 B1 ( Africano )

Japanese version
Home page
Updated on May 23, 2019

---------------------------------------------------------------------

* Profile

Discovery Date January 19, 2019
Magnitude 17.8 mag
Discoverer B. M. Africano (Catalina)

* Pictures

* Orbital Elements

Epoch 2019 Mar. 18.0 TT = JDT 2458560.5
T 2019 Mar. 19.92699 TT                                 MPCW
q   1.5972631            (2000.0)            P               Q
z  +0.0065151      Peri.  174.88588     -0.39366070     +0.48215838
 +/-0.0000712      Node   290.43314     +0.81101543     +0.58298818
e   0.9895937      Incl.  123.36230     +0.43276463     -0.65394808
From 154 observations 2019 Jan. 19-Apr. 3, mean residual 0".7.

* Magnitudes Graph

        m1 = 15.5 + 5 log d + 10.0 log r

---------------------------------------------------------------------

The orbital elements are published on M.P.E.C. 2019-J142.
The magnitudes graphs are made with Comet for Windows.

---------------------------------------------------------------------

Copyright(C) Seiichi Yoshida (comet@aerith.net). All rights reserved.